GW3032 Weather Reports


time (UTC)temp
F
wind
direction
speed
knots
gust
knots
rain 1hr
in
rain 24hr
in
rain mn
in
humidity
%
barometer
mb
20260903073417 76 324 0.9 0.9 0.00 0.00 0.00 89 1016.5
20260903072913 76 324 0.0 0.9 0.00 0.00 0.00 89 1016.6
20260903072409 76 324 0.0 0.0 0.00 0.00 0.00 89 1016.3
20260903071905 76 324 0.0 0.0 0.00 0.00 0.00 88 1016.1
20260903071401 76 324 0.0 0.0 0.00 0.00 0.00 88 1016.0
20260903070857 76 324 0.0 0.9 0.00 0.00 0.00 88 1016.0
20260903070351 77 324 0.0 0.0 0.00 0.00 0.00 88 1016.5
20260903065846 77 324 0.9 0.9 0.00 0.00 0.00 88 1016.5
20260903065345 78 324 0.0 0.0 0.00 0.00 0.00 87 1016.4
20260903064845 78 324 0.0 0.0 0.00 0.00 0.00 87 1016.6
20260903064340 79 324 0.0 0.0 0.00 0.00 0.00 87 1016.7
20260903063836 79 324 0.0 0.0 0.00 0.00 0.00 87 1016.8
20260903063331 80 325 2.6 2.6 0.00 0.00 0.00 86 1017.0
20260903062827 80 326 0.0 0.9 0.00 0.00 0.00 87 1016.9
20260903062326 80 286 0.0 0.9 0.00 0.00 0.00 86 1017.0
20260903061823 81 297 0.9 1.7 0.00 0.00 0.00 86 1016.8
20260903061316 81 310 2.6 2.6 0.00 0.00 0.00 85 1016.9
20260903060813 81 268 0.0 1.7 0.00 0.00 0.00 85 1017.1
20260903060311 81 352 3.5 7.0 0.00 0.00 0.00 84 1017.2
20260903055809 81 317 0.9 4.3 0.00 0.00 0.00 85 1017.1
20260903055308 81 241 0.9 1.7 0.00 0.00 0.00 85 1016.6
20260903054802 81 256 0.0 0.9 0.00 0.00 0.00 85 1016.4
20260903054257 81 254 0.0 0.9 0.00 0.00 0.00 85 1016.1
20260903053754 82 235 0.0 0.9 0.00 0.00 0.00 84 1016.3
20260903053254 82 259 0.9 2.6 0.00 0.00 0.00 84 1016.3
20260903052744 82 241 1.7 1.7 0.00 0.00 0.00 83 1016.1
20260903052239 82 242 0.0 2.6 0.00 0.00 0.00 84 1016.0
20260903051734 82 196 2.6 4.3 0.00 0.00 0.00 84 1016.1
20260903051230 82 264 0.9 1.7 0.00 0.00 0.00 83 1015.8
20260903050726 82 267 0.0 0.9 0.00 0.00 0.00 83 1015.8
20260903050224 82 191 1.7 2.6 0.00 0.00 0.00 83 1015.8
20260903045720 82 275 0.9 0.9 0.00 0.00 0.00 83 1015.5
20260903045216 82 246 1.7 5.2 0.00 0.00 0.00 83 1015.5
20260903044712 82 231 0.9 1.7 0.00 0.00 0.00 83 1015.5
20260903044207 82 244 1.7 2.6 0.00 0.00 0.00 83 1015.4
20260903043704 82 245 1.7 2.6 0.00 0.00 0.00 83 1015.4
20260903043203 82 248 0.9 1.7 0.00 0.00 0.00 82 1015.5
20260903042702 82 262 2.6 6.1 0.00 0.00 0.00 82 1015.3
20260903042157 82 222 0.9 4.3 0.00 0.00 0.00 83 1015.3
20260903041654 82 273 0.0 1.7 0.00 0.00 0.00 82 1015.4
20260903041149 82 229 1.7 2.6 0.00 0.00 0.00 82 1015.3
20260903040649 82 259 0.9 1.7 0.00 0.00 0.00 83 1015.0
20260903040144 82 271 0.9 4.3 0.00 0.00 0.00 82 1015.1
20260903035639 82 301 0.0 2.6 0.00 0.00 0.00 83 1015.0
20260903035130 82 247 0.9 0.9 0.00 0.00 0.00 83 1015.2
20260903034624 82 235 0.9 1.7 0.00 0.00 0.00 82 1014.9
20260903034119 82 239 0.9 0.9 0.00 0.00 0.00 82 1014.9
20260903033615 82 239 0.9 0.9 0.00 0.00 0.00 82 1014.7
20260903033109 81 234 0.9 1.7 0.00 0.00 0.00 83 1014.6
20260903032604 81 256 0.0 2.6 0.00 0.00 0.00 82 1014.8
20260903032059 81 249 0.0 0.9 0.00 0.00 0.00 82 1014.7
20260903031554 82 279 0.9 1.7 0.00 0.00 0.00 82 1014.8
20260903031049 82 240 0.9 1.7 0.00 0.00 0.00 81 1014.9
20260903030544 82 247 0.0 0.9 0.00 0.00 0.00 81 1015.2
20260903030041 82 222 0.9 0.9 0.00 0.00 0.00 81 1015.1
20260903025536 82 244 2.6 4.3 0.00 0.00 0.00 81 1015.4
20260903025032 82 254 0.9 0.9 0.00 0.00 0.00 81 1015.4
20260903024531 82 244 0.0 1.7 0.00 0.00 0.00 80 1015.4
20260903024026 82 257 0.0 1.7 0.00 0.00 0.00 80 1015.5
20260903023521 82 235 0.9 2.6 0.00 0.00 0.00 80 1015.6
20260903023017 82 258 0.0 1.7 0.00 0.00 0.00 81 1015.7
20260903022516 82 236 0.9 1.7 0.00 0.00 0.00 81 1015.7
20260903022014 81 279 0.0 0.0 0.00 0.00 0.00 82 1015.6
20260903021510 81 273 0.0 0.9 0.00 0.00 0.00 82 1015.7
20260903021004 81 259 0.0 0.0 0.00 0.00 0.00 82 1015.8
20260903020500 81 245 0.9 0.9 0.00 0.00 0.00 82 1015.8
20260903015954 81 259 0.0 0.0 0.00 0.00 0.00 82 1015.6
20260903015450 81 259 0.0 0.9 0.00 0.00 0.00 81 1015.7
20260903014944 82 259 0.9 0.9 0.00 0.00 0.00 81 1015.8
20260903014444 82 271 0.0 0.9 0.00 0.00 0.00 80 1015.9
20260903013938 82 271 0.0 0.0 0.00 0.00 0.00 80 1015.9
20260903013433 82 271 0.9 0.9 0.00 0.00 0.00 79 1015.9
20260903012932 82 245 0.9 0.9 0.00 0.00 0.00 80 1015.8
20260903012432 82 254 0.0 0.9 0.00 0.00 0.00 80 1016.0
20260903011930 82 249 0.0 0.9 0.00 0.00 0.00 79 1015.8
20260903011425 83 248 0.0 0.9 0.00 0.00 0.00 79 1015.9
20260903010920 83 248 0.9 0.9 0.00 0.00 0.00 78 1015.8
20260903010416 84 249 0.0 0.9 0.00 0.00 0.00 77 1015.8
20260903005913 84 254 0.9 0.9 0.00 0.00 0.00 77 1015.7
20260903005409 84 268 0.0 0.0 0.00 0.00 0.00 77 1015.8
20260903004906 84 268 0.0 0.0 0.00 0.00 0.00 76 1015.8
20260903004401 84 273 0.0 0.9 0.00 0.00 0.00 76 1015.6
20260903003856 84 253 0.0 1.7 0.00 0.00 0.00 76 1015.8
20260903003350 84 241 0.0 0.9 0.00 0.00 0.00 76 1015.5
20260903002850 85 242 0.0 0.9 0.00 0.00 0.00 76 1015.4
20260903002345 85 241 0.9 1.7 0.00 0.00 0.00 75 1015.4
20260903001840 85 240 0.0 0.9 0.00 0.00 0.00 75 1015.5
20260903001335 86 229 0.0 0.0 0.00 0.00 0.00 74 1015.4
20260903000835 86 266 0.9 0.9 0.00 0.00 0.00 74 1015.5
20260903000332 86 239 0.0 1.7 0.00 0.00 0.00 74 1015.4
20260902235827 86 228 0.0 0.9 0.00 0.00 0.00 73 1015.4
20260902235318 87 240 0.9 1.7 0.00 0.00 0.00 73 1015.4
20260902234817 87 226 0.0 1.7 0.00 0.00 0.00 74 1015.6
20260902234312 87 236 0.0 0.0 0.00 0.00 0.00 73 1015.5
20260902233811 87 260 0.0 0.0 0.00 0.00 0.00 73 1015.5
20260902233311 88 260 0.0 0.0 0.00 0.00 0.00 72 1015.3
20260902232809 88 260 0.0 0.0 0.00 0.00 0.00 71 1015.5
20260902232310 89 261 0.0 0.9 0.00 0.00 0.00 69 1015.4
20260902231809 89 261 0.0 0.9 0.00 0.00 0.00 68 1015.4
20260902231304 89 259 0.0 0.9 0.00 0.00 0.00 68 1015.4
20260902230759 89 247 0.0 0.9 0.00 0.00 0.00 67 1015.4
20260902230258 89 284 0.0 1.7 0.00 0.00 0.00 67 1015.3
20260902225753 90 228 0.0 2.6 0.00 0.00 0.00 66 1015.3
20260902225248 90 222 0.9 1.7 0.00 0.00 0.00 65 1015.2
20260902224746 91 228 1.7 1.7 0.00 0.00 0.00 64 1015.3
20260902224242 91 266 0.9 1.7 0.00 0.00 0.00 64 1015.4
20260902223738 91 302 0.9 0.9 0.00 0.00 0.00 63 1015.4
20260902223237 91 231 0.9 4.3 0.00 0.00 0.00 63 1015.4
20260902222736 92 230 1.7 2.6 0.00 0.00 0.00 63 1015.4
20260902222231 92 238 0.9 5.2 0.00 0.00 0.00 62 1015.3
20260902221725 93 304 2.6 4.3 0.00 0.00 0.00 61 1015.4
20260902221219 94 238 0.9 2.6 0.00 0.00 0.00 59 1015.4
20260902220714 94 229 0.0 1.7 0.00 0.00 0.00 59 1015.5
20260902220214 93 258 0.9 1.7 0.00 0.00 0.00 59 1015.4
20260902215710 94 257 1.7 2.6 0.00 0.00 0.00 59 1015.3
20260902215205 94 229 1.7 2.6 0.00 0.00 0.00 58 1015.5
20260902214700 94 225 1.7 7.0 0.00 0.00 0.00 58 1015.4
20260902214159 95 236 1.7 4.3 0.00 0.00 0.00 59 1015.4
20260902213655 95 252 1.7 2.6 0.00 0.00 0.00 60 1015.4
20260902213149 94 231 0.9 2.6 0.00 0.00 0.00 59 1015.5
20260902212644 94 238 1.7 4.3 0.00 0.00 0.00 59 1015.5
20260902212140 94 209 2.6 2.6 0.00 0.00 0.00 59 1015.7
20260902211636 93 238 1.7 2.6 0.00 0.00 0.00 59 1015.5
20260902211131 94 290 1.7 5.2 0.00 0.00 0.00 59 1015.9
20260902210631 94 200 0.9 6.1 0.00 0.00 0.00 57 1015.8
20260902210126 95 294 0.9 4.3 0.00 0.00 0.00 58 1015.8
20260902205619 94 250 0.9 5.2 0.00 0.00 0.00 58 1015.9
20260902205115 95 233 0.9 2.6 0.00 0.00 0.00 59 1015.9
20260902204615 95 210 1.7 4.3 0.00 0.00 0.00 57 1015.9
20260902204109 94 316 1.7 4.3 0.00 0.00 0.00 58 1016.1
20260902203605 94 250 0.0 2.6 0.00 0.00 0.00 60 1016.0
20260902203104 94 238 2.6 2.6 0.00 0.00 0.00 60 1016.0
20260902202600 95 156 2.6 4.3 0.00 0.00 0.00 59 1015.9
20260902202056 94 258 1.7 6.1 0.00 0.00 0.00 59 1016.1
20260902201551 95 227 1.7 5.2 0.00 0.00 0.00 58 1016.0
20260902201045 95 166 2.6 4.3 0.00 0.00 0.00 58 1016.3
20260902200540 95 266 0.9 1.7 0.00 0.00 0.00 57 1016.4
20260902200037 95 225 1.7 4.3 0.00 0.00 0.00 58 1016.0
20260902195532 95 324 1.7 5.2 0.00 0.00 0.00 58 1016.6
20260902195030 95 239 1.7 5.2 0.00 0.00 0.00 57 1016.4
20260902194525 94 239 0.9 5.2 0.00 0.00 0.00 58 1016.5
20260902194020 94 224 0.9 5.2 0.00 0.00 0.00 60 1016.6
20260902193515 94 237 1.7 4.3 0.00 0.00 0.00 61 1016.6
20260902193014 94 224 6.1 7.8 0.00 0.00 0.00 60 1016.5
20260902192508 94 168 2.6 4.3 0.00 0.00 0.00 59 1016.7
20260902192007 94 277 0.0 2.6 0.00 0.00 0.00 60 1016.7
20260902191503 94 225 0.0 5.2 0.00 0.00 0.00 60 1016.7
20260902190957 95 258 2.6 4.3 0.00 0.00 0.00 59 1016.9
20260902190452 94 208 0.0 1.7 0.00 0.00 0.00 61 1016.9
20260902185947 94 217 2.6 4.3 0.00 0.00 0.00 60 1017.0
20260902185443 94 306 2.6 5.2 0.00 0.00 0.00 61 1016.8
20260902184939 94 344 1.7 4.3 0.00 0.00 0.00 61 1016.9
20260902184434 95 249 1.7 4.3 0.00 0.00 0.00 62 1017.0
20260902183930 95 226 0.9 1.7 0.00 0.00 0.00 62 1017.1
20260902183425 94 298 0.9 6.1 0.00 0.00 0.00 62 1017.3
20260902182921 94 297 0.9 4.3 0.00 0.00 0.00 62 1017.2
20260902182417 94 263 0.9 1.7 0.00 0.00 0.00 60 1017.2
20260902181913 94 266 2.6 6.1 0.00 0.00 0.00 61 1017.3
20260902181409 93 304 2.6 2.6 0.00 0.00 0.00 62 1017.3
20260902180903 93 258 0.9 1.7 0.00 0.00 0.00 61 1017.4
20260902180358 93 155 1.7 2.6 0.00 0.00 0.00 62 1017.4
20260902175853 93 316 4.3 6.1 0.00 0.00 0.00 62 1017.6
20260902175348 93 336 0.9 1.7 0.00 0.00 0.00 63 1017.6
20260902174844 93 267 2.6 5.2 0.00 0.00 0.00 65 1017.5
20260902174341 92 330 1.7 4.3 0.00 0.00 0.00 64 1017.6
20260902173831 92 309 1.7 2.6 0.00 0.00 0.00 67 1017.6
20260902173330 91 230 1.7 4.3 0.00 0.00 0.00 64 1018.0
20260902172825 92 238 0.9 2.6 0.00 0.00 0.00 64 1017.9
20260902172324 92 275 0.9 2.6 0.00 0.00 0.00 64 1018.0
20260902171814 92 231 1.7 4.3 0.00 0.00 0.00 65 1018.0
20260902171309 92 232 2.6 2.6 0.00 0.00 0.00 65 1017.9
20260902170805 91 255 2.6 2.6 0.00 0.00 0.00 64 1018.2
20260902170301 91 233 1.7 1.7 0.00 0.00 0.00 68 1018.2
20260902165756 91 255 1.7 2.6 0.00 0.00 0.00 67 1018.2
20260902165256 91 234 0.9 1.7 0.00 0.00 0.00 70 1018.2
20260902164750 90 244 0.9 1.7 0.00 0.00 0.00 69 1018.1
20260902164244 90 254 1.7 2.6 0.00 0.00 0.00 67 1018.2
20260902163739 90 234 0.9 1.7 0.00 0.00 0.00 70 1018.4
20260902163233 90 232 1.7 2.6 0.00 0.00 0.00 69 1018.4
20260902162731 90 237 0.9 1.7 0.00 0.00 0.00 69 1018.2
20260902162221 90 234 1.7 2.6 0.00 0.00 0.00 68 1018.3
20260902161716 89 253 0.0 0.9 0.00 0.00 0.00 69 1018.3
20260902161211 89 234 0.9 1.7 0.00 0.00 0.00 70 1018.2
20260902160708 89 255 2.6 2.6 0.00 0.00 0.00 70 1018.3
20260902160203 89 237 1.7 1.7 0.00 0.00 0.00 72 1018.3
20260902155701 89 254 1.7 1.7 0.00 0.00 0.00 72 1018.5
20260902155159 90 238 1.7 1.7 0.00 0.00 0.00 70 1018.4
20260902154655 89 252 0.0 0.9 0.00 0.00 0.00 72 1018.3
20260902154154 88 255 1.7 2.6 0.00 0.00 0.00 72 1018.4
20260902153649 88 256 1.7 1.7 0.00 0.00 0.00 73 1018.4
20260902153144 88 235 0.9 1.7 0.00 0.00 0.00 74 1018.5
20260902152640 87 253 1.7 2.6 0.00 0.00 0.00 74 1018.5
20260902152135 86 254 1.7 1.7 0.00 0.00 0.00 75 1018.5
20260902151630 86 234 2.6 2.6 0.00 0.00 0.00 77 1018.5
20260902151125 86 235 0.9 2.6 0.00 0.00 0.00 77 1018.5
20260902150621 86 252 0.0 1.7 0.00 0.00 0.00 77 1018.6
20260902150115 86 252 0.9 1.7 0.00 0.00 0.00 78 1018.4
20260902145610 85 243 0.0 0.9 0.00 0.00 0.00 79 1018.5
20260902145109 84 238 0.9 1.7 0.00 0.00 0.00 80 1018.5
20260902144606 84 252 0.0 1.7 0.00 0.00 0.00 81 1018.5
20260902144101 84 255 2.6 2.6 0.00 0.00 0.00 81 1018.5
20260902143556 83 237 0.9 5.2 0.00 0.00 0.00 80 1018.6
20260902143051 83 246 1.7 1.7 0.00 0.00 0.00 82 1018.3
20260902142546 83 255 1.7 2.6 0.00 0.00 0.00 82 1018.3
20260902142042 83 242 0.9 1.7 0.00 0.00 0.00 84 1018.3
20260902141541 82 238 0.9 1.7 0.00 0.00 0.00 85 1018.3
20260902141038 82 234 2.6 4.3 0.00 0.00 0.00 86 1018.1
20260902140538 81 239 0.9 1.7 0.00 0.00 0.00 86 1018.2
20260902140033 81 248 0.0 1.7 0.00 0.00 0.00 87 1018.2
20260902135527 81 245 1.7 2.6 0.00 0.00 0.00 87 1018.1
20260902135022 81 246 0.9 1.7 0.00 0.00 0.00 88 1018.0
20260902134518 80 245 0.9 2.6 0.00 0.00 0.00 88 1018.2
20260902134018 80 248 0.9 2.6 0.00 0.00 0.00 89 1018.1
20260902133513 80 248 0.0 2.6 0.00 0.00 0.00 88 1018.1
20260902133012 80 246 0.9 0.9 0.00 0.00 0.00 88 1018.0
20260902132508 80 245 0.9 1.7 0.00 0.00 0.00 89 1017.9
20260902132003 80 246 0.0 0.9 0.00 0.00 0.00 89 1018.0
20260902131459 79 248 0.9 1.7 0.00 0.00 0.00 89 1018.1
20260902130958 79 245 2.6 4.3 0.00 0.00 0.00 90 1018.1
20260902130454 79 246 0.9 2.6 0.00 0.00 0.00 90 1018.0
20260902125949 79 247 0.9 1.7 0.00 0.00 0.00 90 1018.0
20260902125446 79 246 0.0 1.7 0.00 0.00 0.00 91 1018.3
20260902124941 78 246 0.0 0.9 0.00 0.00 0.00 92 1018.1
20260902124437 78 246 0.9 0.9 0.00 0.00 0.00 93 1018.2
20260902123932 78 246 0.0 0.9 0.00 0.00 0.00 93 1018.2
20260902123429 77 247 0.0 1.7 0.00 0.00 0.00 93 1018.3
20260902122926 77 246 1.7 1.7 0.00 0.00 0.00 94 1018.3
20260902122423 77 247 0.9 2.6 0.00 0.00 0.00 94 1018.0
20260902121918 77 246 0.0 1.7 0.00 0.00 0.00 94 1018.0
20260902121413 77 247 0.9 0.9 0.00 0.00 0.00 94 1018.1
20260902120908 77 247 0.0 0.9 0.00 0.00 0.00 94 1018.1
20260902120404 77 247 0.0 1.7 0.00 0.00 0.00 94 1018.1
20260902115903 77 246 0.0 0.9 0.00 0.00 0.00 95 1018.0
20260902115400 76 246 0.0 0.0 0.00 0.00 0.00 95 1017.8
20260902114856 76 246 0.0 0.0 0.00 0.00 0.00 96 1017.9
20260902114351 76 246 0.0 0.9 0.00 0.00 0.00 96 1017.7
20260902113846 76 246 0.0 0.0 0.00 0.00 0.00 97 1017.8
20260902113342 75 246 0.0 0.9 0.00 0.00 0.00 97 1017.7
20260902112841 75 246 0.0 0.9 0.00 0.00 0.00 98 1017.7
20260902112338 75 246 0.9 0.9 0.00 0.00 0.00 98 1017.5
20260902111833 75 247 0.0 0.9 0.00 0.00 0.00 99 1017.5
20260902111329 75 247 0.0 0.0 0.00 0.00 0.00 99 1017.6
20260902110824 75 247 0.0 0.9 0.00 0.00 0.00 99 1017.5
20260902110320 75 247 0.0 0.0 0.00 0.00 0.00 99 1017.3
20260902105820 75 247 0.0 0.9 0.00 0.00 0.00 99 1017.5
20260902105315 75 247 0.0 0.0 0.00 0.00 0.00 99 1017.3
20260902104810 75 247 0.9 0.9 0.00 0.00 0.00 99 1017.4
20260902104307 75 248 0.0 0.0 0.00 0.00 0.00 99 1017.5
20260902103806 75 248 0.0 0.9 0.00 0.00 0.00 99 1017.4
20260902103301 75 247 0.0 0.9 0.00 0.00 0.00 99 1017.3
20260902102756 74 242 0.9 1.7 0.00 0.00 0.00 99 1017.4
20260902102254 74 248 0.0 0.0 0.00 0.00 0.00 99 1017.5
20260902101749 74 248 0.0 0.9 0.00 0.00 0.00 99 1017.4
20260902101244 74 249 0.0 0.0 0.00 0.00 0.00 99 1017.1
20260902100743 74 249 0.0 0.0 0.00 0.00 0.00 99 1017.3
20260902100237 74 249 0.0 0.0 0.00 0.00 0.00 99 1017.3
20260902095732 73 245 0.0 0.9 0.00 0.00 0.00 99 1017.3
20260902095226 73 245 0.0 0.9 0.00 0.00 0.00 99 1017.1
20260902094721 73 245 0.0 0.0 0.00 0.00 0.00 99 1017.4
20260902094217 73 245 0.0 0.0 0.00 0.00 0.00 99 1017.5
20260902093715 73 245 0.0 0.0 0.00 0.00 0.00 99 1017.3
20260902093211 73 245 0.0 0.0 0.00 0.00 0.00 99 1017.3
20260902092706 73 245 0.0 0.0 0.00 0.00 0.00 99 1017.3
20260902092201 73 245 0.0 0.0 0.00 0.00 0.00 99 1017.4
20260902091655 73 245 0.0 0.0 0.00 0.00 0.00 99 1017.6
20260902091152 73 245 0.0 0.0 0.00 0.00 0.00 99 1017.8
20260902090647 73 245 0.0 0.0 0.00 0.00 0.00 99 1017.8
20260902090147 73 245 0.0 0.0 0.00 0.00 0.00 99 1017.6
20260902085641 73 245 0.0 0.0 0.00 0.00 0.00 99 1017.6
20260902085136 73 245 0.0 0.0 0.00 0.00 0.00 99 1017.7
20260902084633 73 245 0.0 0.0 0.00 0.00 0.00 99 1017.6
20260902084128 73 245 0.0 0.0 0.00 0.00 0.00 99 1017.6
20260902083623 73 245 0.0 0.0 0.00 0.00 0.00 99 1017.4
20260902083122 73 245 0.0 0.0 0.00 0.00 0.00 99 1017.6
20260902082618 73 245 0.0 0.0 0.00 0.00 0.00 99 1017.6
20260902082115 73 245 0.0 0.0 0.00 0.00 0.00 99 1017.6
20260902081611 73 245 0.0 0.0 0.00 0.00 0.00 99 1017.6
20260902081111 73 245 0.0 0.0 0.00 0.00 0.00 99 1017.5
20260902080606 73 245 0.0 0.0 0.00 0.00 0.00 99 1017.4
20260902075602 73 245 0.0 0.0 0.00 0.00 0.00 99 1017.2
20260902075058 73 245 0.0 0.0 0.00 0.00 0.00 99 1017.4
20260902074553 73 245 0.0 0.0 0.00 0.00 0.00 99 1017.4
20260902074048 73 245 0.0 0.0 0.00 0.00 0.00 99 1017.3